Location: Williams Lake
(52.1170°N, 122.1500°W)
Time: 00:11:03
(UTC-08:00)

Daily predictions for brighter satellites

Satellite Brightness Start Highest point End
(mag) Time Altitude Azimuth Time Altitude Azimuth Time Altitude Azimuth
ATLAS 3B R/B 4.2 03:17:17 31° NNE 03:17:17 31° NNE 03:20:47 10° NE
Cosmos 2219 Rocket 4.3 03:31:12 22° NE 03:31:12 22° NE 03:33:21 10° NE
CZ-4C R/B 4.2 03:32:24 25° NNE 03:32:24 25° NNE 03:35:20 10° NE
ATLAS 5 CENTAUR R/B 4.5 03:33:24 17° NE 03:33:24 17° NE 03:34:42 10° NE
Cosmos 2333 Rocket 4.0 03:38:55 27° ENE 03:38:55 27° ENE 03:41:43 10° NE
NOSS 3-2 (A) 4.4 03:53:09 46° NE 03:53:09 46° NE 03:57:52 10° NE
SL-16 R/B 4.1 03:59:24 17° SE 04:02:26 26° ESE 04:07:02 10° NE
Cosmos 1943 Rocket 4.3 04:04:22 16° NNE 04:05:12 17° NNE 04:08:41 10° ENE
COSMOS 2428 4.3 04:10:55 26° NNE 04:10:55 26° NNE 04:13:23 10° NNE
Cosmos 2322 Rocket 4.5 04:14:31 14° N 04:14:31 14° N 04:15:39 10° NNE
Cosmos 2360 Rocket 4.2 04:17:52 18° N 04:17:52 18° N 04:19:32 10° NNE
Lacrosse 4 Rocket 4.3 04:17:31 11° NNE 04:17:31 11° NNE 04:18:12 10° NE
COSMOS 2455 4.4 04:22:04 24° N 04:22:04 24° N 04:25:09 10° NNE
Cosmos 2181 Rocket 4.4 04:27:25 54° SSE 04:27:25 54° SSE 04:32:11 10° S
Cosmos 2237 Rocket 2.5 04:34:09 62° NE 04:34:09 62° NE 04:38:49 10° NNE
Cosmos 1709 Rocket 3.9 04:36:53 76° S 04:37:24 85° E 04:43:42 10° N
CZ-4B R/B 4.4 04:32:04 10° NNE 04:34:56 31° N 04:34:56 31° N
SL-16 R/B 4.3 04:39:56 15° N 04:39:56 15° N 04:41:29 10° NNE
Okean-O 4.4 04:36:54 10° NNE 04:38:47 24° NNE 04:38:47 24° NNE
Meteor 1-18 Rocket 4.4 04:41:22 53° N 04:42:49 78° ENE 04:48:45 10° SSE
USA 238 DEB 4.3 04:44:54 42° NNW 04:44:54 42° NNW 04:51:26 10° NE
USA 238 4.3 04:44:59 42° NNW 04:44:59 42° NNW 04:51:32 10° NE
Cosmos 1238 Rocket 3.9 04:47:59 51° SSE 04:47:59 51° SSE 04:52:05 10° SSE
CENTAUR R/B 2.9 04:46:00 39° SSW 04:48:22 65° SE 04:55:23 10° NE
Lacrosse 5 rocket 2.5 04:54:48 40° NE 04:54:48 40° NE 04:57:41 10° ENE
ADEOS II 2.7 04:49:45 10° NNE 04:53:22 44° N 04:53:22 44° N
Cosmos 2369 Rocket 3.2 04:54:08 27° N 04:56:44 43° NE 05:02:11 10° ESE
ATLAS 3B R/B 3.6 05:04:33 32° NNW 05:05:48 34° N 05:12:07 10° NE
Cosmos 1980 3.8 05:07:32 58° NW 05:07:32 58° NW 05:12:51 10° NNE
Cosmos 921 Rocket 3.6 05:08:50 50° S 05:08:50 50° S 05:12:14 10° SSE
Cosmos 2219 Rocket 2.8 05:12:58 39° NNW 05:12:58 39° NNW 05:17:24 10° NNE
COSMO-SKYMED 1 2.4 05:09:09 10° SSE 05:13:28 89° SE 05:13:28 89° SE
ATLAS 5 CENTAUR R/B 3.3 05:14:57 26° NNW 05:15:15 27° N 05:20:05 10° NE
NOSS 3-2 (C) 3.8 05:14:23 47° NW 05:15:21 50° NNW 05:22:13 10° NE
Nadezhda 3 Rocket 4.4 05:12:33 10° N 05:18:53 63° ENE 05:25:11 10° SSE
CZ-4C R/B 3.5 05:17:35 28° NNW 05:19:03 31° N 05:25:07 10° ENE
Cosmos 2056 Rocket 3.4 05:17:27 44° NNW 05:19:10 87° ENE 05:24:18 10° SSE
Okean 1 3.8 05:21:05 48° S 05:21:05 48° S 05:24:04 10° S
Cosmos 2333 Rocket 2.5 05:20:58 45° NW 05:20:58 45° NW 05:26:09 10° NNE
Meteor 1-14 Rocket 4.1 05:17:46 10° SSW 05:23:23 66° WNW 05:28:57 10° N
Cosmos 773 Rocket 4.0 05:28:34 53° WNW 05:28:49 54° WNW 05:33:52 10° NNE
USA 32 4.0 05:28:59 29° NNW 05:31:31 59° W 05:36:39 10° S
Cosmos 1624 Rocket 3.9 05:31:20 40° NW 05:33:14 70° WSW 05:38:30 10° SSE
Cosmos 2327 Rocket 4.4 05:29:53 10° S 05:36:17 83° W 05:42:37 10° N
Cosmos 923 Rocket 4.0 05:34:19 29° SW 05:36:58 63° WNW 05:42:15 10° NNE
Cosmos 1371 Rocket 4.1 05:35:56 43° WNW 05:37:18 55° WSW 05:42:27 10° S
DMSP B5D1-3 4.4 05:32:41 10° S 05:37:50 70° WSW 05:41:27 20° NNW
Ariane Rocket 3.5 05:33:12 10° NNE 05:38:15 61° ESE 05:43:15 10° S
Cosmos 1346 Rocket 3.1 05:40:03 47° SW 05:40:03 47° SW 05:43:13 10° S
Cosmos 1300 Rocket 4.0 05:35:17 10° S 05:39:40 63° E 05:44:02 10° NNE
NOSS 3-2 (A) 4.2 05:40:33 32° WNW 05:42:37 39° NNW 05:49:18 10° NE
Cosmos 2074 Rocket 3.9 05:38:59 10° SSW 05:45:14 71° WNW 05:51:31 10° N
CRYOSAT 2 4.3 05:41:02 10° S 05:45:51 60° W 05:50:45 10° N
ADEOS Rocket 4.3 05:41:31 10° N 05:44:09 20° NNW 05:44:09 20° NNW
SL-16 R/B 2.1 05:41:26 15° SW 05:46:07 67° NW 05:51:48 10° NNE
Meteor 1-25 Rocket 4.2 05:40:26 10° SSW 05:46:14 66° WNW 05:52:02 10° N
Cosmos 292 Rocket 3.6 05:41:59 10° SSW 05:46:49 73° WNW 05:51:40 10° NNE
NOSS 0 Rocket 4.4 05:45:26 34° WNW 05:47:04 39° NW 05:52:55 10° NNE
Meteor 1-13 Rocket 4.2 05:41:16 10° NNW 05:47:13 78° W 05:53:10 10° S
CZ-4 R/B 3.4 05:45:16 10° NNE 05:48:48 29° E 05:52:17 10° SSE
Cosmos 1943 Rocket 2.9 05:45:55 15° NNW 05:50:20 50° NE 05:55:41 10° SE
SL-24 DEB 4.4 05:45:35 10° SSE 05:50:21 78° E 05:55:11 10° N
COSMOS 2428 4.1 05:52:57 20° NNW 05:53:04 20° NNW 05:57:18 10° NNE
Lacrosse 4 Rocket 2.8 05:53:52 17° NNW 05:56:32 32° NE 06:00:16 10° ESE
Cosmos 2322 Rocket 4.3 05:56:20 11° NNW 05:57:43 12° N 05:59:38 10° NNE
Cosmos 2263 4.3 05:53:18 17° NNW 05:57:43 77° ENE 06:03:20 10° SE
Cosmos 2184 Rocket 4.0 05:53:02 10° SSW 05:59:06 59° WNW 06:05:16 10° N
Cosmos 2360 Rocket 4.0 05:59:39 14° NNW 06:00:10 14° NNW 06:03:04 10° NNE
SKYMED 2 4.2 05:57:50 10° SSW 06:01:45 33° W 06:02:05 32° W
Meteor 1-23 Rocket 4.3 05:57:03 10° N 06:02:40 79° ENE 06:08:13 10° SSE
Cosmos 1980 Rocket 4.4 06:01:20 10° N 06:03:07 11° N 06:04:55 10° NNE
Cosmos 2151 Rocket 3.9 05:59:02 10° SW 06:03:18 41° WNW 06:07:36 10° N
CSL-04 DEB 4.2 06:00:30 10° NNE 06:04:32 80° WNW 06:08:37 10° SSW
Cosmos 1680 Rocket 3.7 06:00:31 10° SW 06:05:35 49° WNW 06:10:40 10° NNE
Meteor 1-28 Rocket 3.5 06:03:45 10° S 06:07:23 45° W 06:09:00 28° NW
COSMOS 2455 4.5 06:05:13 16° NNW 06:07:42 19° N 06:11:59 10° NE
USA 215 3.3 06:01:20 10° ENE 06:07:55 82° SSE 06:14:28 10° WSW
Cosmos 1452 Rocket 3.4 06:04:14 15° NNW 06:08:44 84° WSW 06:14:00 10° SSE
Cosmos 1633 2.5 06:05:17 10° S 06:08:57 89° WNW 06:12:37 10° N
Cosmos 1536 3.2 06:06:23 10° S 06:10:20 66° E 06:14:21 10° NNE
Tiangong 2 3.6 06:10:04 10° SW 06:11:57 15° S 06:13:55 10° SE
Cosmos 2154 Rocket 3.9 06:08:08 10° SSW 06:14:20 81° W 06:20:36 10° N
NOAA 6 4.4 06:12:33 10° N 06:17:21 41° WNW 06:22:08 10° SW
Okean-O 4.1 06:14:08 10° N 06:16:22 19° NW 06:16:22 19° NW
Cosmos 2237 Rocket 3.2 06:16:01 22° WNW 06:17:53 27° NW 06:22:39 10° NNE
Meteor 2-13 Rocket 4.4 06:12:43 10° SSW 06:18:53 80° W 06:25:06 10° N
Meteor 2-4 Rocket 3.6 06:15:44 10° NNW 06:21:09 68° W 06:26:41 10° S
Cosmos 1340 2.9 06:17:51 10° N 06:21:39 70° ENE 06:25:26 10° SSE
SL-16 R/B 4.3 06:22:41 10° NNW 06:24:22 11° N 06:26:03 10° NNE
Cosmos 2112 Rocket 4.4 06:19:39 10° SW 06:24:35 41° NW 06:29:30 10° NNE
Helios 1B rocket 2.4 06:20:52 10° SSE 06:25:01 84° WSW 06:29:13 10° NNW
Radarsat Rocket 4.4 06:18:59 10° NNE 06:25:30 58° WNW 06:32:51 10° SW
CZ-2C R/B 3.2 06:21:12 10° NNE 06:26:22 59° E 06:31:25 10° S
YAOGAN 1 3.5 06:23:25 10° NNE 06:27:41 52° E 06:31:55 10° S
CSL-04 Debris 4.1 06:24:49 10° NNE 06:30:18 77° WNW 06:35:45 10° SSW
CSL-04 Rocket 3.7 06:24:48 10° NNE 06:30:21 68° WNW 06:35:50 10° SSW
Lacrosse 5 rocket 2.0 06:30:32 20° WNW 06:33:03 43° N 06:37:16 10° ENE
ADEOS II 3.5 06:30:48 10° NNW 06:33:57 16° NW 06:34:18 16° NW
GRACE-2 3.8 06:33:27 10° N 06:36:14 61° W 06:38:59 10° SSW
GRACE-1 3.8 06:33:53 10° N 06:36:39 59° W 06:39:24 10° SSW
Cosmos 1025 Rocket 3.3 06:33:32 10° NNW 06:37:47 48° W 06:41:59 10° SSW
SMAP 3.4 06:33:21 10° NNE 06:38:02 69° ESE 06:42:40 10° S
Meteor 1-5 Rocket 4.4 06:33:10 10° S 06:38:31 71° E 06:43:48 10° NNE
CENTAUR R/B 3.0 06:33:14 11° W 06:39:24 49° NNW 06:46:34 10° NE
Cosmos 2369 Rocket 2.6 06:35:57 13° NW 06:40:50 44° WSW 06:46:11 10° S
Cosmos 1603 3.7 06:37:56 10° SW 06:43:36 63° NW 06:49:14 10° NNE
DNEPR-1 R/B 4.4 06:38:07 10° SW 06:44:56 68° NW 06:50:30 10° NE
Okean 1 Rocket 3.5 06:41:26 10° SW 06:45:34 39° WNW 06:49:44 10° N
Cosmos 839 Rocket 4.1 06:39:10 11° NW 06:46:03 76° SW 06:52:12 10° SSE
COSMO-SKYMED 1 4.4 06:48:25 10° WSW 06:50:19 13° W 06:50:40 12° W
Cosmos 1544 Rocket 3.8 06:46:52 10° S 06:51:12 75° E 06:55:37 10° NNE
SL-8 Rocket 4.0 06:45:19 10° S 06:51:36 87° WNW 06:57:52 10° N
PAYLOAD A 4.1 06:46:37 10° N 06:51:53 68° WNW 06:57:14 10° SSW
Cosmos 1975 4.4 06:48:18 10° SSE 06:52:09 41° E 06:56:02 10° NNE
Lacrosse 5 2.7 06:50:52 10° SW 06:55:50 54° SE 07:00:48 10° ENE
SPOT 3 Rocket 3.6 06:51:01 10° NNE 06:56:13 88° ESE 07:01:23 10° SSW
Cosmos 2219 Rocket 3.8 06:54:42 11° NW 06:57:33 16° NNW 07:00:54 10° NNE
ATLAS 3B R/B 3.6 06:51:48 10° NW 06:58:22 37° NNE 07:04:39 10° E
Meteor 2-19 Rocket 4.5 06:54:22 10° S 07:00:31 88° W 07:06:40 10° N
CORIOLIS 4.2 06:55:24 10° NNE 07:00:48 85° ESE 07:06:10 10° SSW
ATLAS 5 CENTAUR R/B 3.4 06:56:35 10° NW 07:01:30 31° NNE 07:06:51 10° E
Cosmos 2366 rocket 4.2 06:55:35 10° S 07:01:53 84° E 07:08:17 10° NNE
Cosmos 1515 3.7 06:59:32 10° N 07:03:25 89° E 07:07:16 10° S
MONITOR-E 4.4 07:00:13 10° NNE 07:03:27 81° ESE 07:06:39 10° S
Cosmos 2218 Rocket 4.1 06:58:15 10° S 07:04:41 84° WNW 07:11:08 10° N
Cosmos 1420 Rocket 4.3 07:00:39 10° NNW 07:05:44 50° WSW 07:10:46 10° S
Okean 2 4.0 07:02:20 10° NNW 07:06:14 37° W 07:10:05 10° SSW
Cosmos 2333 Rocket 3.8 07:03:00 10° WNW 07:06:29 16° NNW 07:09:59 10° NNE
Cosmos 1959 Rocket 4.4 07:01:13 10° SSW 07:07:21 81° W 07:13:30 10° N
Cosmos 1892 Rocket 4.0 07:03:23 10° NNW 07:07:36 42° W 07:11:48 10° SSW
MOS 1 4.3 07:03:32 10° NNE 07:09:13 78° WNW 07:14:51 10° SSW
CZ-4C R/B 3.5 07:03:06 10° NW 07:09:14 41° NNE 07:16:09 10° E
Cosmos 1867 4.5 07:04:26 10° NW 07:09:39 41° NNE 07:14:48 10° ESE
Cosmos 1943 3.2 07:05:01 10° SW 07:10:39 77° WNW 07:16:21 10° NNE
Meteor 1-29 3.8 07:08:02 10° SSW 07:11:04 30° W 07:14:08 10° NNW
Cosmos 44 Rocket 3.4 07:08:20 10° SW 07:13:32 78° NW 07:18:37 10° NE
IDEFIX/ARIANE 42P 2.6 07:08:44 10° N 07:13:54 65° WNW 07:19:02 10° SSW
Ariane Rocket 3.9 07:12:45 10° N 07:16:52 25° WNW 07:20:58 10° WSW
